SCOUT A R/B, 2755

Orbit data source: Space-Track

SCOUT A R/B, 2755 is space debris in LEO originally from a launch on Fri, 14 Apr 1967 UTC launched from the Air Force Western Test Range (AFWTR). Debris objects in space refer to the collection of defunct objects orbiting the Earth. Examples of debris include non-operational satellites, rocket bodies, and fragments generated from explosions, collisions, or faulty payload assembly.

Loading next visibility...
SCOUT A R/B details
Identifier
2755, 1967-034B
Orbit
LEO
Last TLE update13 hours ago
Origin
Flag of USNASA LaRC (US)
ManufacturerABL
MissionSpacecraft
Bus & MotorALTAIR, Unknown motor
Mass33 kg wet, 33 kg dry
Launch date (UTC)
1967-04-14 (58 years ago)
Launch vehicleUnknown
Launch site
Air Force Western Test Range (AFWTR)
Object type
Payload
Rocket body
Debris
Shape & HBRCyl, 1.5 m
Radar Cross Section0.687 m², Medium (>0.1 m² and < 1m²)

Expand to show TLE details & history

TLE from 13 hours ago
0 SCOUT A R/B
1 02755U 67034B   24356.73788727  .00000058  00000-0  72225-4 0  9993
2 02755  90.2494  41.7572 0027361 128.7499 355.3721 13.53921819848631
Epoch: 2024-12-21T17:42Z
Definitive object data (Epoch: 2024-12-21T17:42:33.46Z)
Latitude55.99651°
Longitude-134.29916°
Altitude1,046.988 km
Speed7.344 km/s
True Right ascension14h 48m 30s
True Declination55° 50' 35"
Sunlit
Object was in daylight at TLE epoch
Visualization TLE readout
Latitude13.75741°
Longitude-134.5929°
Altitude1,044.25 km
Speed7.339 km/s
Apparent Right ascension15h 50m 21s
Apparent Declination-11° 27' 10"
Sunlit
Object is in daylight
Visualization observer readout
Local Sidereal Time05:24:37
Azimuth42.733° NE
Elevation-54.729°
Doppler factor1
Orbital elements
Apogee altitude1,075.246 km
Perigee altitude1,034.571 km
Semi-major axis7,433.045 km
Eccentricity0.0027361
Inclination90.2494°
RAAN41.7572°
Arg. of periapsis128.7499°
True anomaly355.34672°
Mean anomaly355.3721°
Eccentric anomaly355.35942°
Mean motion3.38683 °/min
BSTAR0.000072225
Orbital period106.29 mins
Loading maneuver chart data...
Loading historical data...
Loading historical data...
Loading historical data...
Loading historical data...
Loading historical data...
Loading historical data...
Loading historical data...

SCOUT A R/B Visibility forecast

Observer location: undefined°, undefined

Span
Click to sort rows by Start time (UTC) header in descending order
Start Az.
Max El. time (UTC)
Max El. Az.
Max El.
End time (UTC)
End Az.
11 mins2024-12-22 14:58:53.375Z17.146° NNE2024-12-22 15:03:53.375Z75.746° E35.7°2024-12-22 15:09:53.375Z158.23° S
8 mins2024-12-22 16:46:53.375Z325.119° NNW2024-12-22 16:49:53.375Z288.128° WNW24.179°2024-12-22 16:54:53.375Z232.986° WSW
11 mins2024-12-23 02:54:53.375Z147.486° SSE2024-12-23 02:59:53.375Z83.523° E35.907°2024-12-23 03:05:53.375Z10.584° NNE
9 mins2024-12-23 04:41:53.375Z227.275° WSW2024-12-23 04:45:53.375Z271.127° WNW24.439°2024-12-23 04:50:53.375Z328.848° NNW
|